Погода в Цнале

Россия / Республика Дагестан     41°41′46″N   47°59′54″E
темп.,
°C
ветер,
м/с
пор.,
м/с
влажн.,
%
обл.,
%
осадки,
мм/ч
давл.,
гПа
погр.,
м
29 июня, ср
ср2900:00+17з22770 0.0 101212
03:00+16з22801 0.6 101314
06:00+18зюз11701 0.1 1013106
09:00+22св22433 0.1 10131115
12:00+25всв32354 0.0 10121869
15:00+24всв433812 0.0 10121702
18:00+22всв22471 0.0 1013395
21:00+17з33580 0.1 101421
30 июня, чт
чт3000:00+17з3261100 0.0 101419
03:00+17з226295 0.0 101413
06:00+19з01580 0.0 101496
09:00+22в32490 0.0 10141013
12:00+24в434661 0.0 10121700
15:00+22в435249 0.0 10121274
18:00+19в325713 0.0 1013487
21:00+14з11730 0.0 101411
1 июля, пт
пт100:00+14з22760 0.0 101311
03:00+13зюз11770 0.0 101210
06:00+16юв00650 0.0 1012144
09:00+19в31491 0.0 1011900
12:00+23в424318 0.0 10101499
15:00+21всв434725 0.0 10111183
18:00+18всв22511 0.0 1012536
21:00+13зсз22676 0.0 101411
2 июля, сб
сб200:00+13з2267100 0.0 101313
03:00+12з217177 0.1 101411
06:00+15з116398 0.0 101363
09:00+16с3460100 0.0 1015887
12:00+15св0166100 0.1 1016445
15:00+14зюз1273100 0.4 1016231
18:00+13з0184100 0.8 101713
21:00+13вюв0086100 0.9 101811
3 июля, вс
вс300:00+13св0084100 0.0 101810
03:00+13з1184100 0.1 101811
06:00+13з1183100 0.5 101966
09:00+13ю1187100 1.0 1020140
12:00+14юз1274100 0.6 1020332
15:00+17ю115844 0.6 1018781
18:00+17в325442 0.0 1018593
21:00+13зюз116781 0.0 102011